Tracking 17925 objects as of 24-January-2017
HD Live streaming from Space Station
objects crossing your sky now

VANGUARD R/B

Track VANGUARD R/B now!
10-day predictions


NORAD ID: 16
Int'l Code: 1958-002A
Perigee: 657.8 km
Apogee: 4,233.8 km
Inclination: 34.3 °
Period: 137.3 minutes
Semi major axis: 8816 km
RCS: 0.2285 m2 (medium)
Launch date: March 17, 1958
Source: United States (US)
Launch site: AIR FORCE EASTERN TEST RANGE (AFETR)

Note: This is a ROCKET BODY
Your satellite tracking list
Your tracking list is empty





NASA's NSSDC Master Catalog

Two Line Element Set (TLE):
1    16U 58002A   17022.63560584 -.00000111 +00000-0 -12716-3 0  9996
2    16 034.2613 140.1345 2027944 041.9900 331.9562 10.48668064328462
Source of the keplerian elements: AFSPC